[[{"header":{"parameterUnit":"m.s-1","parameterCategory":1,"la1":30.2991,"la2":30.254,"lo1":-89.0895,"lo2":-89.0444,"dy":0.0017,"dx":0.0017,"nx":28,"ny":28,"refTime":"2023-09-18T09:00:00:Z","depth":0,"parameterNumber":2,"parameterNumberName":"U-component_of_WINDS"},"data":[0,0,0,0,0,0,0,0,0,0,0,0,0,0,0,0,0,0,0,0,0,0,0,0,0,0,0,0,0,0,0,0,0,0,0,0,0,0,0,0,0,0,0,0,0,0,0,0,0,0,0,0,0,0,0,0,0,0,-2.2901,-2.2901,0,-2.2856,-2.2855,-2.2854,-2.2798,-2.2798,-2.2797,-2.2796,-2.2746,-2.2745,-2.2745,0,0,0,0,0,0,0,0,0,0,0,0,0,-2.2939,-2.2938,-2.2901,-2.2901,-2.29,-2.2856,-2.2855,-2.2854,-2.2799,-2.2797,-2.2796,-2.2795,-2.2746,-2.2746,-2.2745,0,0,0,0,0,0,0,0,0,0,0,0,0,-2.2911,-2.2938,-2.2902,-2.2867,-2.2864,-2.2856,-2.2855,-2.2854,-2.2799,-2.2797,-2.2796,-2.2795,-2.2746,-2.2746,-2.2745,-2.2766,0,0,-2.2742,-2.2742,0,0,0,0,0,0,0,0,-2.2912,-2.2909,-2.2873,-2.2869,-2.2866,-2.2831,-2.285,-2.2825,-2.2799,-2.2823,-2.2796,-2.2794,-2.2775,-2.2772,-2.2766,-2.2764,-2.2762,-2.2742,-2.2742,-2.2742,-2.2741,0,0,0,0,0,0,0,-2.2914,-2.2911,-2.2883,-2.2872,-2.2868,-2.2853,-2.2848,-2.2845,-2.2807,-2.2821,-2.2817,-2.2812,-2.2773,-2.2767,-2.2765,-2.2761,-2.2742,-2.2742,-2.2741,-2.2741,-2.2774,-2.2775,0,0,0,0,0,0,-2.2922,-2.2913,-2.2885,-2.2882,-2.2886,-2.2854,-2.2848,-2.2844,-2.2807,-2.28,-2.2814,-2.281,-2.2769,-2.2766,-2.2763,-2.2785,-2.2742,-2.2741,-2.274,-2.2772,-2.2774,-2.2776,0,0,0,0,0,0,-2.2923,-2.292,-2.2886,-2.2896,-2.2891,-2.2855,-2.285,-2.2843,-2.2837,-2.2801,-2.2794,-2.2815,-2.2768,-2.2764,-2.2766,-2.2782,-2.2741,-2.274,-2.2771,-2.2773,-2.2775,-2.2829,0,0,0,0,0,0,-2.2924,-2.2921,-2.2929,-2.2897,-2.2891,-2.2891,-2.2851,-2.2843,-2.2837,-2.2831,-2.28,-2.2794,-2.2767,-2.2767,-2.2765,-2.278,-2.2739,-2.2769,-2.2772,-2.2774,-2.2826,-2.2833,-2.2839,0,0,0,0,0,-2.2926,-2.2945,-2.2929,-2.2926,-2.29,-2.2892,-2.2889,-2.2857,-2.2838,-2.2846,-2.2823,-2.2795,-2.2781,-2.2768,-2.2765,-2.278,-2.2768,-2.2771,-2.2774,-2.2823,-2.2832,-2.2839,0,0,0,0,0,0,-2.2978,-2.294,-2.2922,-2.2932,-2.2916,-2.2883,-2.2891,-2.2868,-2.2856,-2.2851,-2.2813,-2.2806,-2.2813,-2.2797,-2.2783,-2.2799,-2.2771,-2.2773,-2.2809,-2.2817,-2.2823,-2.2826,-2.2739,0,0,0,0,0,-2.2992,-2.2989,-2.2956,-2.2968,-2.2961,-2.2928,-2.2923,-2.2901,-2.2882,-2.2875,-2.2852,-2.2834,-2.2825,-2.282,-2.2811,-2.2824,-2.2816,-2.2833,-2.284,-2.2846,-2.2848,-2.2853,-2.286,-2.2785,-2.2785,-2.2785,0,0,-2.3018,-2.2997,-2.2997,-2.2978,-2.2963,-2.296,-2.2922,-2.2921,-2.2919,-2.2874,-2.2874,-2.2858,-2.2835,-2.2843,-2.2845,-2.283,-2.2867,-2.2849,-2.2854,-2.2853,-2.2857,-2.2864,-2.287,-2.2787,-2.2787,-2.2787,0,0,-2.3064,-2.3049,-2.3057,-2.3043,-2.3021,-2.2999,-2.3001,-2.2972,-2.2959,-2.296,-2.2926,-2.2923,-2.2909,-2.2894,-2.2885,-2.2928,-2.2902,-2.2926,-2.296,-2.2966,-2.2971,-2.2976,-2.2991,-2.2997,-2.2929,-2.2929,-2.2929,0,-2.3099,-2.3095,-2.3064,-2.3065,-2.3057,-2.3019,-2.3026,-2.3014,-2.299,-2.2985,-2.2968,-2.2951,-2.2933,-2.2937,-2.2948,-2.2942,-2.2943,-2.2929,-2.2973,-2.2978,-2.2982,-2.2995,-2.3001,-2.2932,-2.2932,-2.2931,-2.2931,0,-2.3139,-2.3137,-2.3146,-2.3125,-2.3118,-2.3123,-2.3091,-2.3088,-2.3067,-2.3047,-2.3048,-2.3026,-2.3011,-2.3011,-2.299,-2.3012,-2.3003,-2.2981,-2.2951,-2.2993,-2.3005,-2.3009,-2.2936,-2.2935,-2.2934,-2.2934,0,0,-2.3215,-2.3178,-2.3182,-2.3172,-2.3145,-2.3142,-2.3146,-2.3132,-2.313,-2.3115,-2.3116,-2.3106,-2.3086,-2.3076,-2.3053,-2.3058,-2.3093,-2.3035,-2.3034,-2.3046,-2.3115,-2.3131,-2.3137,-2.3076,-2.3077,-2.3078,-2.3116,0,-2.3256,-2.3259,-2.3232,-2.3242,-2.3239,-2.3203,-2.3206,-2.3189,-2.3171,-2.3166,-2.3145,-2.3139,-2.3113,-2.3106,-2.311,-2.3088,-2.3106,-2.3085,-2.3075,-2.3075,-2.3081,-2.3143,-2.316,-2.3197,-2.3121,-2.3122,-2.3122,0,-2.3303,-2.3292,-2.3302,-2.3276,-2.3274,-2.3277,-2.3262,-2.3258,-2.3239,-2.3225,-2.3215,-2.3189,-2.319,-2.3163,-2.3163,-2.3149,-2.3144,-2.3132,-2.3133,-2.3129,-2.31,-2.314,-2.3208,-2.3213,-2.3129,-2.3129,-2.3128,0,-2.3356,-2.3344,-2.3349,-2.3341,-2.3311,-2.3314,-2.3301,-2.3281,-2.3275,-2.3263,-2.3258,-2.3246,-2.3239,-2.3229,-2.3201,-2.3185,-2.3204,-2.3175,-2.3191,-2.3192,-2.3195,-2.3195,-2.3262,-2.3195,-2.3195,-2.3195,-2.3194,0,-2.3404,-2.3411,-2.3372,-2.3375,-2.3382,-2.3351,-2.3359,-2.3343,-2.3325,-2.3324,-2.3292,-2.3291,-2.3255,-2.3249,-2.3227,-2.323,-2.3227,-2.3215,-2.3209,-2.3217,-2.3219,-2.3212,-2.3208,-2.3196,-2.3196,-2.3195,-2.3195,0,-2.3463,-2.3438,-2.344,-2.3412,-2.3405,-2.3412,-2.3387,-2.3388,-2.3369,-2.3367,-2.3365,-2.3334,-2.3327,-2.3298,-2.3283,-2.3268,-2.3278,-2.3267,-2.3284,-2.328,-2.3298,-2.3296,-2.3361,-2.3368,-2.3298,-2.3299,-2.3299,0,-2.3494,-2.35,-2.3472,-2.347,-2.3459,-2.3455,-2.3449,-2.3418,-2.3413,-2.3393,-2.3396,-2.3386,-2.3377,-2.3366,-2.3342,-2.333,-2.3318,-2.3341,-2.3315,-2.3324,-2.3316,-2.3316,-2.3316,-2.3346,-2.3347,-2.3348,-2.3349,0,-2.3552,-2.3539,-2.3532,-2.3521,-2.3515,-2.3505,-2.3493,-2.3492,-2.3458,-2.3454,-2.3446,-2.3439,-2.3425,-2.3415,-2.34,-2.3386,-2.3361,-2.3358,-2.336,-2.3368,-2.3378,-2.3372,-2.3298,-2.3356,-2.3355,-2.3354,-2.3354,-2.3354,-2.3597,-2.36,-2.3582,-2.3575,-2.3563,-2.3552,-2.3552,-2.3533,-2.3527,-2.3513,-2.3496,-2.349,-2.3472,-2.3449,-2.3437,-2.3432,-2.3418,-2.3423,-2.3424,-2.3425,-2.3429,-2.338,-2.3429,-2.3429,-2.3429,-2.3428,-2.3428,0,-2.3652,-2.3639,-2.3633,-2.3618,-2.3612,-2.3592,-2.3577,-2.3574,-2.357,-2.3555,-2.3547,-2.3538,-2.3529,-2.3505,-2.3493,-2.3493,-2.3482,-2.3491,-2.349,-2.3487,-2.3442,-2.344,-2.3501,-2.3501,-2.3501,-2.3501,-2.3501,-2.3501,-2.368,-2.3684,-2.3669,-2.3667,-2.3653,-2.3648,-2.3642,-2.3631,-2.3619,-2.3612,-2.3604,-2.3589,-2.357,-2.3557,-2.3547,-2.3541,-2.3537,-2.355,-2.3539,-2.3497,-2.349,-2.3484,-2.3481,-2.355,-2.355,-2.3584,-2.3585,-2.3585]},{"header":{"parameterUnit":"m.s-1","parameterCategory":1,"la1":30.2991,"la2":30.254,"lo1":-89.0895,"lo2":-89.0444,"dy":0.0017,"dx":0.0017,"nx":28,"ny":28,"refTime":"2023-09-18T09:00:00:Z","depth":0,"parameterNumber":3,"parameterNumberName":"V-component_of_WINDS"},"data":[0,0,0,0,0,0,0,0,0,0,0,0,0,0,0,0,0,0,0,0,0,0,0,0,0,0,0,0,0,0,0,0,0,0,0,0,0,0,0,0,0,0,0,0,0,0,0,0,0,0,0,0,0,0,0,0,0,0,2.4723,2.4723,0,2.4694,2.4693,2.4693,2.4676,2.4676,2.4676,2.4676,2.4643,2.4642,2.4642,0,0,0,0,0,0,0,0,0,0,0,0,0,2.4761,2.476,2.4723,2.4723,2.4722,2.4694,2.4693,2.4693,2.4676,2.4676,2.4676,2.4676,2.4643,2.4643,2.4642,0,0,0,0,0,0,0,0,0,0,0,0,0,2.4739,2.476,2.4723,2.4711,2.4709,2.4694,2.4693,2.4693,2.4676,2.4676,2.4676,2.4676,2.4644,2.4643,2.4641,2.4635,0,0,2.4638,2.4637,0,0,0,0,0,0,0,0,2.474,2.4738,2.4713,2.4711,2.471,2.4689,2.4695,2.4673,2.4676,2.4689,2.4676,2.4676,2.4658,2.4656,2.465,2.4634,2.4632,2.4637,2.4637,2.4636,2.4636,0,0,0,0,0,0,0,2.4742,2.4739,2.4711,2.4712,2.4711,2.4705,2.4702,2.4691,2.4674,2.4688,2.4686,2.4683,2.4657,2.4652,2.4649,2.4632,2.4638,2.4636,2.4636,2.4635,2.4608,2.4608,0,0,0,0,0,0,2.4746,2.474,2.4712,2.471,2.4725,2.4705,2.4701,2.4695,2.4674,2.4671,2.4683,2.4683,2.4654,2.4651,2.4648,2.4639,2.4636,2.4635,2.4634,2.4608,2.4608,2.4608,0,0,0,0,0,0,2.4747,2.4744,2.4713,2.4725,2.4721,2.4704,2.4698,2.4695,2.4689,2.4671,2.4668,2.4681,2.4654,2.465,2.4639,2.4638,2.4634,2.4633,2.4608,2.4608,2.4608,2.4622,0,0,0,0,0,0,2.4748,2.4744,2.4742,2.4725,2.472,2.4705,2.4698,2.4694,2.4688,2.4686,2.4668,2.4665,2.4653,2.4641,2.4637,2.4636,2.4632,2.4608,2.4608,2.4608,2.4621,2.4622,2.4623,0,0,0,0,0,2.4749,2.4747,2.4742,2.4739,2.4718,2.4705,2.4702,2.469,2.4688,2.4685,2.4673,2.4665,2.4639,2.464,2.4636,2.4634,2.4608,2.4608,2.4608,2.4621,2.4622,2.4623,0,0,0,0,0,0,2.4763,2.4744,2.4739,2.4731,2.472,2.4703,2.4699,2.4692,2.4681,2.468,2.4664,2.466,2.465,2.4641,2.4643,2.4627,2.4622,2.4621,2.4633,2.4634,2.4635,2.4638,2.4631,0,0,0,0,0,2.4766,2.4758,2.4742,2.4736,2.4731,2.4716,2.471,2.4702,2.4689,2.4684,2.4672,2.4659,2.4648,2.464,2.4629,2.462,2.4615,2.4617,2.4618,2.4618,2.4618,2.4612,2.4612,2.4608,2.4608,2.4608,0,0,2.477,2.4759,2.4755,2.4739,2.4729,2.4721,2.4712,2.4704,2.4697,2.4683,2.4671,2.4662,2.4646,2.4636,2.4631,2.4628,2.4618,2.4619,2.4619,2.4618,2.4612,2.4612,2.4612,2.4608,2.4608,2.4608,0,0,2.4774,2.4765,2.476,2.475,2.4736,2.4726,2.4725,2.4708,2.4702,2.469,2.4679,2.467,2.4651,2.4641,2.4633,2.4632,2.4624,2.4629,2.4633,2.4627,2.4628,2.4628,2.4627,2.4627,2.4628,2.4628,2.4628,0,2.4781,2.4769,2.4757,2.4749,2.4742,2.473,2.4723,2.4714,2.4697,2.4692,2.4689,2.4665,2.4653,2.464,2.464,2.4634,2.4631,2.4631,2.4629,2.4629,2.4629,2.4628,2.4628,2.4629,2.4629,2.4629,2.4629,0,2.4778,2.477,2.4767,2.4751,2.4744,2.4736,2.4722,2.4716,2.4708,2.4698,2.4686,2.4672,2.4658,2.4654,2.4646,2.4639,2.4638,2.4632,2.4627,2.463,2.4629,2.4629,2.463,2.463,2.463,2.4629,0,0,2.479,2.4768,2.4767,2.476,2.4743,2.4736,2.4728,2.4714,2.4709,2.4697,2.4689,2.4673,2.4668,2.4659,2.4649,2.4644,2.4644,2.4639,2.4638,2.464,2.4635,2.4639,2.4639,2.4638,2.4638,2.4638,2.4636,0,2.4791,2.4777,2.4766,2.4756,2.4747,2.4735,2.4728,2.4716,2.4707,2.4697,2.4686,2.4675,2.4669,2.4663,2.4658,2.4645,2.4642,2.4645,2.463,2.4629,2.4634,2.4638,2.4643,2.4641,2.4635,2.4635,2.4635,0,2.4791,2.4781,2.477,2.4754,2.475,2.4744,2.473,2.4722,2.4708,2.4701,2.4691,2.4681,2.467,2.4666,2.4651,2.4653,2.4646,2.4639,2.4638,2.4636,2.4632,2.4636,2.4641,2.464,2.4634,2.4634,2.4635,0,2.4801,2.4784,2.4775,2.4769,2.475,2.4746,2.4738,2.4724,2.4716,2.4704,2.4699,2.4685,2.4678,2.4667,2.4653,2.4651,2.4639,2.4634,2.4632,2.4632,2.463,2.463,2.4633,2.4625,2.4625,2.4625,2.4625,0,2.4803,2.4797,2.4779,2.4774,2.4766,2.4752,2.4745,2.4735,2.4723,2.4714,2.4702,2.4694,2.4677,2.4667,2.4656,2.4644,2.4641,2.4634,2.4631,2.4635,2.4636,2.463,2.463,2.4625,2.4625,2.4625,2.4625,0,2.4812,2.48,2.479,2.4773,2.4769,2.4764,2.4748,2.4742,2.4732,2.4721,2.4718,2.4701,2.4688,2.4673,2.4655,2.4648,2.4637,2.4633,2.4642,2.464,2.4639,2.464,2.4639,2.4638,2.4631,2.4631,2.4631,0,2.4815,2.481,2.4793,2.4787,2.4779,2.4769,2.4762,2.4748,2.4741,2.4724,2.4719,2.4706,2.4694,2.4674,2.4659,2.4645,2.464,2.4641,2.4638,2.4642,2.464,2.464,2.464,2.4642,2.4642,2.4642,2.4642,0,2.482,2.4814,2.4805,2.4793,2.4784,2.4774,2.4763,2.4758,2.4742,2.4734,2.4721,2.4712,2.4694,2.4681,2.4665,2.4654,2.4645,2.4643,2.4642,2.4646,2.4651,2.4648,2.4644,2.4643,2.4643,2.4643,2.4643,2.4643,2.4826,2.482,2.4808,2.4797,2.4787,2.4777,2.4771,2.476,2.4749,2.4734,2.4726,2.4713,2.4698,2.4676,2.4666,2.4655,2.4652,2.4651,2.465,2.465,2.4651,2.4654,2.4652,2.4652,2.4652,2.4652,2.4652,0,2.483,2.4821,2.4812,2.4797,2.4788,2.4782,2.4769,2.4762,2.4751,2.4739,2.4728,2.4713,2.4699,2.4683,2.4669,2.4663,2.4658,2.4659,2.4659,2.4657,2.4654,2.4657,2.4663,2.4663,2.4663,2.4663,2.4663,2.4663,2.4831,2.4822,2.4815,2.48,2.4791,2.4779,2.4773,2.4763,2.4753,2.4737,2.4726,2.4716,2.4702,2.4686,2.4673,2.4669,2.4663,2.4666,2.466,2.4658,2.4657,2.4656,2.4659,2.4665,2.4665,2.4664,2.4664,2.4664]}]]